AAL422 KMIA-KLAX

Flight info

Callsign AAL422
Flight time 4h 54m
Altitude 34000
Route GLADZ4 BAGGS REMIS Y280 LEV J86 ELP J50 SSO J4 WLVRN ESTWD HLYWD1
Aircraft A339/H-SADE1E2E3GHIJ3J5M1P2RWXY/LB2D1

Departure

Time 2026-05-07 21:51
Airport Miami International Airport (KMIA)

Arrival

Time 2026-05-08 02:45
Airport Los Angeles International Airport (KLAX)
Time Latitude Longitude Altitude Speed Heading
2026-05-07 21:10 25.79831 -80.28083 22 ft 0 kts 221°
2026-05-07 21:31 25.79841 -80.28073 22 ft 2 kts 222°
2026-05-07 21:32 25.79846 -80.28068 22 ft 0 kts 225°
2026-05-07 21:34 25.79853 -80.28056 22 ft 2 kts 264°
2026-05-07 21:34 25.79852 -80.28040 22 ft 2 kts 279°
2026-05-07 21:35 25.79850 -80.28026 22 ft 0 kts 275°
2026-05-07 21:42 25.79867 -80.28088 22 ft 12 kts 306°
2026-05-07 21:42 25.79938 -80.28137 22 ft 10 kts 350°
2026-05-07 21:43 25.79970 -80.28200 22 ft 11 kts 261°
2026-05-07 21:43 25.79962 -80.28275 22 ft 9 kts 266°
2026-05-07 21:43 25.79955 -80.28355 22 ft 11 kts 264°
2026-05-07 21:43 25.79947 -80.28443 22 ft 11 kts 264°
2026-05-07 21:44 25.79938 -80.28536 22 ft 12 kts 265°
2026-05-07 21:44 25.79939 -80.28639 22 ft 14 kts 272°
2026-05-07 21:44 25.79937 -80.28754 22 ft 15 kts 266°
2026-05-07 21:44 25.79936 -80.28869 22 ft 12 kts 285°
2026-05-07 21:45 25.79979 -80.28921 22 ft 9 kts 310°
2026-05-07 21:45 25.80010 -80.29054 22 ft 25 kts 269°
2026-05-07 21:45 25.79997 -80.29298 22 ft 36 kts 266°
2026-05-07 21:45 25.79985 -80.29542 21 ft 22 kts 264°
2026-05-07 21:46 25.79979 -80.29675 21 ft 16 kts 269°
2026-05-07 21:46 25.79975 -80.29801 21 ft 15 kts 266°
2026-05-07 21:46 25.79971 -80.29918 20 ft 15 kts 268°
2026-05-07 21:46 25.79967 -80.30032 20 ft 9 kts 270°
2026-05-07 21:47 25.79969 -80.30050 20 ft 3 kts 286°
2026-05-07 21:47 25.79979 -80.30077 20 ft 0 kts 294°
2026-05-07 21:47 25.79979 -80.30078 20 ft 0 kts 294°
2026-05-07 21:47 25.79981 -80.30081 20 ft 0 kts 294°
2026-05-07 21:48 25.79981 -80.30083 20 ft 1 kts 294°
2026-05-07 21:48 25.80020 -80.30116 20 ft 10 kts 348°
2026-05-07 21:49 25.80058 -80.30093 20 ft 0 kts 68°
2026-05-07 21:49 25.80062 -80.30083 20 ft 6 kts 69°
2026-05-07 21:49 25.80072 -80.30037 20 ft 0 kts 84°
2026-05-07 21:49 25.80072 -80.30036 20 ft 0 kts 84°
2026-05-07 21:50 25.80083 -80.29803 21 ft 60 kts 88°
2026-05-07 21:50 25.80108 -80.29128 22 ft 115 kts 88°
2026-05-07 21:50 25.80151 -80.28045 24 ft 161 kts 88°
2026-05-07 21:50 25.80224 -80.26755 371 ft 171 kts 88°
2026-05-07 21:51 25.80305 -80.25436 849 ft 176 kts 88°
2026-05-07 21:51 25.80394 -80.24063 1342 ft 181 kts 87°
2026-05-07 21:51 25.80488 -80.22656 1826 ft 185 kts 86°
2026-05-07 21:51 25.80587 -80.21223 2263 ft 189 kts 86°
2026-05-07 21:52 25.80694 -80.19740 2693 ft 194 kts 85°
2026-05-07 21:52 25.80817 -80.18222 3056 ft 202 kts 83°
2026-05-07 21:52 25.81081 -80.16645 3381 ft 212 kts 63°
2026-05-07 21:52 25.82095 -80.15458 3658 ft 221 kts 22°
2026-05-07 21:53 25.83613 -80.15067 4024 ft 228 kts 358°
2026-05-07 21:53 25.85241 -80.15247 4325 ft 243 kts 350°
2026-05-07 21:53 25.86983 -80.15494 4618 ft 260 kts 354°
2026-05-07 21:53 25.88851 -80.15670 5031 ft 272 kts 351°
2026-05-07 21:54 25.90707 -80.16091 5660 ft 273 kts 342°
2026-05-07 21:54 25.92530 -80.16727 6319 ft 274 kts 341°
2026-05-07 21:54 25.94351 -80.17392 6923 ft 276 kts 341°
2026-05-07 21:54 25.96193 -80.18059 7481 ft 279 kts 340°
2026-05-07 21:55 25.97907 -80.19121 8006 ft 283 kts 315°
2026-05-07 21:55 25.98999 -80.20924 8513 ft 287 kts 290°
2026-05-07 21:55 25.99384 -80.23121 9038 ft 291 kts 277°
2026-05-07 21:55 25.99610 -80.25359 9551 ft 295 kts 277°
2026-05-07 21:56 25.99765 -80.27657 10105 ft 297 kts 272°
2026-05-07 21:56 25.99787 -80.29989 10468 ft 308 kts 270°
2026-05-07 21:56 25.99779 -80.32420 10713 ft 322 kts 270°
2026-05-07 21:56 25.99770 -80.34945 10946 ft 336 kts 270°
2026-05-07 21:57 25.99763 -80.37578 11177 ft 349 kts 270°
2026-05-07 21:57 25.99728 -80.40351 11420 ft 362 kts 265°
2026-05-07 21:57 25.99055 -80.43044 11815 ft 370 kts 246°
2026-05-07 21:57 25.97914 -80.45596 12419 ft 371 kts 243°
2026-05-07 21:58 25.96720 -80.48154 13001 ft 373 kts 243°
2026-05-07 21:58 25.95546 -80.50732 13558 ft 375 kts 244°
2026-05-07 21:58 25.94401 -80.53323 14115 ft 378 kts 245°
2026-05-07 21:58 25.93247 -80.55994 14681 ft 380 kts 246°
2026-05-07 21:59 25.92124 -80.58630 15235 ft 382 kts 246°
2026-05-07 21:59 25.90997 -80.61295 15801 ft 385 kts 246°
2026-05-07 21:59 25.89863 -80.63988 16346 ft 387 kts 246°
2026-05-07 21:59 25.88721 -80.66707 16903 ft 389 kts 246°
2026-05-07 22:00 25.87579 -80.69428 17457 ft 392 kts 247°
2026-05-07 22:00 25.86421 -80.72190 18001 ft 394 kts 247°
2026-05-07 22:00 25.85300 -80.74864 18524 ft 396 kts 247°
2026-05-07 22:00 25.84127 -80.77659 19059 ft 398 kts 247°
2026-05-07 22:01 25.82961 -80.80435 19566 ft 400 kts 247°
2026-05-07 22:01 25.81787 -80.83232 20077 ft 402 kts 247°
2026-05-07 22:01 25.80608 -80.86035 20568 ft 404 kts 247°
2026-05-07 22:01 25.79412 -80.88878 21057 ft 406 kts 247°
2026-05-07 22:02 25.78202 -80.91750 21526 ft 408 kts 247°
2026-05-07 22:02 25.77019 -80.94558 21970 ft 409 kts 247°
2026-05-07 22:02 25.75800 -80.97448 22428 ft 411 kts 247°
2026-05-07 22:02 25.74593 -81.00307 22878 ft 413 kts 247°
2026-05-07 22:03 25.73382 -81.03178 23309 ft 415 kts 247°
2026-05-07 22:03 25.72162 -81.06066 23719 ft 417 kts 247°
2026-05-07 22:03 25.70922 -81.09003 24129 ft 419 kts 247°
2026-05-07 22:03 25.69681 -81.11937 24505 ft 421 kts 247°
2026-05-07 22:04 25.68440 -81.14868 24887 ft 423 kts 247°
2026-05-07 22:04 25.67195 -81.17806 25259 ft 426 kts 247°
2026-05-07 22:04 25.66033 -81.20855 25601 ft 425 kts 256°
2026-05-07 22:04 25.65642 -81.24063 25913 ft 425 kts 272°
2026-05-07 22:05 25.66087 -81.27261 26281 ft 425 kts 287°
2026-05-07 22:05 25.67285 -81.30280 26642 ft 427 kts 296°
2026-05-07 22:05 25.68637 -81.33202 26984 ft 429 kts 296°
2026-05-07 22:05 25.69993 -81.36173 27310 ft 431 kts 296°
2026-05-07 22:06 25.71338 -81.39127 27636 ft 433 kts 296°
2026-05-07 22:06 25.72685 -81.42093 27968 ft 435 kts 296°
2026-05-07 22:06 25.74061 -81.45120 28297 ft 437 kts 296°
2026-05-07 22:06 25.75422 -81.48118 28606 ft 439 kts 296°
2026-05-07 22:07 25.76778 -81.51106 28915 ft 440 kts 296°
2026-05-07 22:07 25.78167 -81.54170 29225 ft 442 kts 296°
2026-05-07 22:07 25.79543 -81.57204 29518 ft 444 kts 296°
2026-05-07 22:07 25.80921 -81.60249 29864 ft 445 kts 296°
2026-05-07 22:08 25.82315 -81.63327 30330 ft 443 kts 296°
2026-05-07 22:08 25.83682 -81.66348 30791 ft 441 kts 296°
2026-05-07 22:08 25.85084 -81.69353 31249 ft 439 kts 298°
2026-05-07 22:08 25.86643 -81.72246 31673 ft 438 kts 301°
2026-05-07 22:09 25.88362 -81.75017 32092 ft 437 kts 305°
2026-05-07 22:09 25.90249 -81.77678 32472 ft 437 kts 308°
2026-05-07 22:09 25.92272 -81.80180 32783 ft 439 kts 311°
2026-05-07 22:09 25.94461 -81.82559 33078 ft 441 kts 315°
2026-05-07 22:10 25.96798 -81.84785 33383 ft 443 kts 319°
2026-05-07 22:10 25.99252 -81.86893 33690 ft 444 kts 320°
2026-05-07 22:10 26.01720 -81.88975 33957 ft 445 kts 320°
2026-05-07 22:10 26.04198 -81.91058 33988 ft 446 kts 320°
2026-05-07 22:11 26.09150 -81.95218 33989 ft 447 kts 320°
2026-05-07 22:11 26.14135 -81.99414 33989 ft 447 kts 320°
2026-05-07 22:12 26.19120 -82.03617 33987 ft 446 kts 320°
2026-05-07 22:12 26.24049 -82.07778 33986 ft 445 kts 320°
2026-05-07 22:13 26.28995 -82.11959 33984 ft 446 kts 320°
2026-05-07 22:13 26.33923 -82.16128 33982 ft 445 kts 320°
2026-05-07 22:14 26.38874 -82.20322 33981 ft 446 kts 320°
2026-05-07 22:14 26.43815 -82.24512 33982 ft 446 kts 320°
2026-05-07 22:15 26.48740 -82.28693 33982 ft 445 kts 320°
2026-05-07 22:15 26.53681 -82.32891 33981 ft 445 kts 319°
2026-05-07 22:16 26.58581 -82.37063 33981 ft 445 kts 320°
2026-05-07 22:16 26.63521 -82.41270 33981 ft 445 kts 319°
2026-05-07 22:17 26.68435 -82.45460 33981 ft 444 kts 319°
2026-05-07 22:17 26.73329 -82.49638 33981 ft 444 kts 319°
2026-05-07 22:18 26.80672 -82.55916 33983 ft 443 kts 319°
2026-05-07 22:19 26.85583 -82.60121 33981 ft 443 kts 319°
2026-05-07 22:19 26.90467 -82.64310 33982 ft 444 kts 319°
2026-05-07 22:20 26.95426 -82.68568 33989 ft 443 kts 319°
2026-05-07 22:20 27.00380 -82.72825 33995 ft 443 kts 319°
2026-05-07 22:21 27.05272 -82.77044 33995 ft 442 kts 317°
2026-05-07 22:21 27.09742 -82.81806 33997 ft 438 kts 308°
2026-05-07 22:22 27.13426 -82.87256 33997 ft 435 kts 300°
2026-05-07 22:22 27.16254 -82.93222 34000 ft 433 kts 291°
2026-05-07 22:23 27.18385 -82.99551 34001 ft 433 kts 288°
2026-05-07 22:23 27.20416 -83.05907 34001 ft 432 kts 288°
2026-05-07 22:24 27.22454 -83.12306 34001 ft 433 kts 288°
2026-05-07 22:24 27.24484 -83.18681 34001 ft 432 kts 288°
2026-05-07 22:25 27.26498 -83.25020 34001 ft 431 kts 288°
2026-05-07 22:25 27.28509 -83.31363 34001 ft 431 kts 288°
2026-05-07 22:26 27.30521 -83.37723 34001 ft 431 kts 288°
2026-05-07 22:26 27.32510 -83.44019 34001 ft 430 kts 288°
2026-05-07 22:27 27.34506 -83.50350 34000 ft 431 kts 288°
2026-05-07 22:27 27.36501 -83.56688 34002 ft 431 kts 288°
2026-05-07 22:28 27.38493 -83.63027 34001 ft 431 kts 288°
2026-05-07 22:28 27.40486 -83.69377 34003 ft 430 kts 287°
2026-05-07 22:29 27.42469 -83.75709 34001 ft 430 kts 287°
2026-05-07 22:29 27.44453 -83.82056 34001 ft 430 kts 287°
2026-05-07 22:30 27.46424 -83.88372 34001 ft 429 kts 287°
2026-05-07 22:30 27.48402 -83.94724 34001 ft 429 kts 287°
2026-05-07 22:31 27.50361 -84.01026 34001 ft 428 kts 287°
2026-05-07 22:31 27.52330 -84.07374 34001 ft 429 kts 287°
2026-05-07 22:32 27.54292 -84.13703 34001 ft 428 kts 287°
2026-05-07 22:32 27.56244 -84.20018 34000 ft 429 kts 287°
2026-05-07 22:33 27.58196 -84.26343 33999 ft 429 kts 287°
2026-05-07 22:33 27.60158 -84.32708 33997 ft 429 kts 287°
2026-05-07 22:34 27.62098 -84.39026 33998 ft 429 kts 287°
2026-05-07 22:34 27.64051 -84.45386 33997 ft 428 kts 287°
2026-05-07 22:35 27.65988 -84.51706 33995 ft 427 kts 287°
2026-05-07 22:35 27.67922 -84.58029 33993 ft 427 kts 287°
2026-05-07 22:36 27.69847 -84.64336 33993 ft 427 kts 287°
2026-05-07 22:36 27.71774 -84.70660 33993 ft 426 kts 286°
2026-05-07 22:37 27.73697 -84.76984 33990 ft 426 kts 286°
2026-05-07 22:37 27.75607 -84.83279 33988 ft 426 kts 286°
2026-05-07 22:38 27.77524 -84.89603 33984 ft 425 kts 286°
2026-05-07 22:38 27.79430 -84.95908 33981 ft 425 kts 286°
2026-05-07 22:39 27.81323 -85.02183 33980 ft 425 kts 286°
2026-05-07 22:39 27.83226 -85.08499 33981 ft 425 kts 286°
2026-05-07 22:40 27.85122 -85.14805 33981 ft 425 kts 286°
2026-05-07 22:40 27.87021 -85.21137 33980 ft 425 kts 285°
2026-05-07 22:41 27.88907 -85.27419 33981 ft 425 kts 286°
2026-05-07 22:41 27.90821 -85.33713 33980 ft 425 kts 286°
2026-05-07 22:42 27.92741 -85.40045 33981 ft 424 kts 286°
2026-05-07 22:42 27.94640 -85.46320 33980 ft 424 kts 286°
2026-05-07 22:43 27.96535 -85.52596 33981 ft 423 kts 286°
2026-05-07 22:43 27.98437 -85.58912 33981 ft 423 kts 285°
2026-05-07 22:44 28.00331 -85.65212 33980 ft 422 kts 285°
2026-05-07 22:44 28.02210 -85.71473 33981 ft 422 kts 285°
2026-05-07 22:45 28.04097 -85.77773 33980 ft 422 kts 285°
2026-05-07 22:45 28.05972 -85.84049 33982 ft 421 kts 285°
2026-05-07 22:46 28.07840 -85.90302 33982 ft 422 kts 285°
2026-05-07 22:46 28.09705 -85.96568 33984 ft 421 kts 285°
2026-05-07 22:47 28.11583 -86.02887 33980 ft 422 kts 285°
2026-05-07 22:47 28.13468 -86.09237 33982 ft 423 kts 285°
2026-05-07 22:48 28.15336 -86.15552 33979 ft 423 kts 285°
2026-05-07 22:48 28.17190 -86.21821 33982 ft 423 kts 285°
2026-05-07 22:49 28.19056 -86.28153 33982 ft 422 kts 285°
2026-05-07 22:49 28.20903 -86.34422 33980 ft 420 kts 285°
2026-05-07 22:50 28.22747 -86.40696 33981 ft 421 kts 285°
2026-05-07 22:50 28.24585 -86.46963 33979 ft 420 kts 285°
2026-05-07 22:51 28.26427 -86.53258 33979 ft 420 kts 285°
2026-05-07 22:51 28.28254 -86.59509 33978 ft 421 kts 285°
2026-05-07 22:52 28.30085 -86.65799 33976 ft 419 kts 284°
2026-05-07 22:52 28.31910 -86.72062 33979 ft 420 kts 285°
2026-05-07 22:53 28.33750 -86.78325 33973 ft 420 kts 285°
2026-05-07 22:53 28.35594 -86.84612 33975 ft 419 kts 284°
2026-05-07 22:54 28.37421 -86.90867 33976 ft 419 kts 285°
2026-05-07 22:54 28.39245 -86.97124 33974 ft 420 kts 284°
2026-05-07 22:55 28.41078 -87.03422 33967 ft 419 kts 285°
2026-05-07 22:55 28.42895 -87.09679 33963 ft 419 kts 285°
2026-05-07 22:56 28.44712 -87.15951 33961 ft 420 kts 284°
2026-05-07 22:56 28.46534 -87.22249 33960 ft 419 kts 284°
2026-05-07 22:57 28.48348 -87.28530 33961 ft 420 kts 284°
2026-05-07 22:57 28.50165 -87.34833 33963 ft 420 kts 284°
2026-05-07 22:58 28.51963 -87.41093 33961 ft 419 kts 284°
2026-05-07 22:58 28.53775 -87.47401 33961 ft 419 kts 284°
2026-05-07 22:59 28.55568 -87.53664 33962 ft 419 kts 284°
2026-05-07 22:59 28.57374 -87.59982 33960 ft 419 kts 284°
2026-05-07 23:00 28.59166 -87.66265 33966 ft 419 kts 284°
2026-05-07 23:00 28.60977 -87.72618 33962 ft 419 kts 284°
2026-05-07 23:01 28.62789 -87.78997 33966 ft 419 kts 284°
2026-05-07 23:01 28.64586 -87.85339 33967 ft 419 kts 284°
2026-05-07 23:02 28.66395 -87.91726 33966 ft 419 kts 284°
2026-05-07 23:02 28.68165 -87.97998 33966 ft 423 kts 284°
2026-05-07 23:03 28.69979 -88.04442 33962 ft 429 kts 284°
2026-05-07 23:03 28.71807 -88.10933 33969 ft 429 kts 284°
2026-05-07 23:04 28.73624 -88.17390 33968 ft 429 kts 284°
2026-05-07 23:04 28.75426 -88.23814 33963 ft 428 kts 284°
2026-05-07 23:05 28.77237 -88.30292 33960 ft 428 kts 283°
2026-05-07 23:05 28.79028 -88.36711 33967 ft 427 kts 284°
2026-05-07 23:06 28.80821 -88.43150 33967 ft 427 kts 283°
2026-05-07 23:06 28.82610 -88.49592 33976 ft 426 kts 283°
2026-05-07 23:07 28.84400 -88.56044 33972 ft 426 kts 283°
2026-05-07 23:07 28.86171 -88.62448 33966 ft 427 kts 283°
2026-05-07 23:08 28.87950 -88.68922 33974 ft 426 kts 282°
2026-05-07 23:08 28.89421 -88.75410 33967 ft 424 kts 279°
2026-05-07 23:09 28.90760 -88.81665 33970 ft 424 kts 280°
2026-05-07 23:09 28.92172 -88.88291 33983 ft 424 kts 280°
2026-05-07 23:10 28.93568 -88.94857 33981 ft 424 kts 279°
2026-05-07 23:10 28.94954 -89.01396 33979 ft 425 kts 279°
2026-05-07 23:11 28.96339 -89.07953 33980 ft 425 kts 279°
2026-05-07 23:11 28.97718 -89.14487 33977 ft 424 kts 279°
2026-05-07 23:12 28.99091 -89.21010 33977 ft 423 kts 279°
2026-05-07 23:12 29.00455 -89.27518 33975 ft 423 kts 279°
2026-05-07 23:13 29.01823 -89.34057 33974 ft 424 kts 279°
2026-05-07 23:13 29.03187 -89.40595 33974 ft 423 kts 279°
2026-05-07 23:14 29.04547 -89.47126 33972 ft 423 kts 279°
2026-05-07 23:14 29.05905 -89.53670 33972 ft 423 kts 279°
2026-05-07 23:15 29.07254 -89.60186 33968 ft 423 kts 279°
2026-05-07 23:15 29.08602 -89.66720 33970 ft 423 kts 279°
2026-05-07 23:16 29.09956 -89.73280 33967 ft 423 kts 279°
2026-05-07 23:16 29.11252 -89.79600 33965 ft 423 kts 279°
2026-05-07 23:17 29.12532 -89.85841 33968 ft 423 kts 279°
2026-05-07 23:17 29.13859 -89.92340 33964 ft 423 kts 279°
2026-05-07 23:18 29.15200 -89.98918 33964 ft 423 kts 279°
2026-05-07 23:18 29.16537 -90.05502 33964 ft 423 kts 279°
2026-05-07 23:19 29.17822 -90.12136 33964 ft 422 kts 277°
2026-05-07 23:19 29.18947 -90.18730 33963 ft 422 kts 277°
2026-05-07 23:20 29.20060 -90.25302 33964 ft 421 kts 277°
2026-05-07 23:20 29.21164 -90.31852 33963 ft 421 kts 277°
2026-05-07 23:21 29.22275 -90.38451 33966 ft 421 kts 277°
2026-05-07 23:21 29.23372 -90.45010 33966 ft 421 kts 277°
2026-05-07 23:22 29.24478 -90.51619 33963 ft 422 kts 277°
2026-05-07 23:22 29.24959 -90.54513 33962 ft 421 kts 277°
2026-05-07 23:23 29.25948 -90.60467 33964 ft 420 kts 277°
2026-05-07 23:23 29.27044 -90.67071 33967 ft 421 kts 276°
2026-05-07 23:24 29.28130 -90.73653 33963 ft 420 kts 276°
2026-05-07 23:24 29.29210 -90.80208 33962 ft 421 kts 277°
2026-05-07 23:25 29.30297 -90.86822 33962 ft 420 kts 276°
2026-05-07 23:25 29.31369 -90.93366 33960 ft 420 kts 276°
2026-05-07 23:26 29.32447 -90.99980 33960 ft 420 kts 276°
2026-05-07 23:26 29.33514 -91.06548 33957 ft 421 kts 277°
2026-05-07 23:27 29.35112 -91.16416 33958 ft 420 kts 276°
2026-05-07 23:27 29.36176 -91.23006 33957 ft 420 kts 276°
2026-05-07 23:28 29.37238 -91.29618 33959 ft 421 kts 277°
2026-05-07 23:28 29.38292 -91.36189 33959 ft 420 kts 276°
2026-05-07 23:29 29.39345 -91.42784 33958 ft 421 kts 276°
2026-05-07 23:29 29.40390 -91.49359 33956 ft 421 kts 277°
2026-05-07 23:30 29.41438 -91.55960 33960 ft 420 kts 277°
2026-05-07 23:30 29.42479 -91.62542 33958 ft 420 kts 277°
2026-05-07 23:31 29.43521 -91.69147 33960 ft 420 kts 276°
2026-05-07 23:31 29.44555 -91.75735 33960 ft 420 kts 276°
2026-05-07 23:32 29.45588 -91.82329 33959 ft 419 kts 276°
2026-05-07 23:32 29.46613 -91.88889 33958 ft 420 kts 276°
2026-05-07 23:33 29.47642 -91.95509 33958 ft 420 kts 276°
2026-05-07 23:33 29.48667 -92.02135 33961 ft 426 kts 276°
2026-05-07 23:34 29.49709 -92.08889 33959 ft 432 kts 276°
2026-05-07 23:34 29.50750 -92.15640 33959 ft 432 kts 276°
2026-05-07 23:35 29.51796 -92.22448 33959 ft 432 kts 276°
2026-05-07 23:35 29.52826 -92.29195 33960 ft 432 kts 276°
2026-05-07 23:36 29.53861 -92.35984 33958 ft 432 kts 276°
2026-05-07 23:36 29.54890 -92.42760 33961 ft 432 kts 276°
2026-05-07 23:37 29.55917 -92.49543 33960 ft 431 kts 276°
2026-05-07 23:37 29.56935 -92.56304 33958 ft 432 kts 276°
2026-05-07 23:38 29.57954 -92.63084 33960 ft 432 kts 276°
2026-05-07 23:38 29.58968 -92.69868 33963 ft 431 kts 276°
2026-05-07 23:39 29.59981 -92.76656 33960 ft 430 kts 275°
2026-05-07 23:39 29.60986 -92.83445 33961 ft 430 kts 276°
2026-05-07 23:40 29.61987 -92.90215 33958 ft 431 kts 275°
2026-05-07 23:40 29.62989 -92.97008 33960 ft 430 kts 276°
2026-05-07 23:41 29.63979 -93.03735 33965 ft 430 kts 276°
2026-05-07 23:41 29.64973 -93.10508 33959 ft 429 kts 275°
2026-05-07 23:42 29.65955 -93.17233 33955 ft 429 kts 275°
2026-05-07 23:42 29.66938 -93.24014 33952 ft 429 kts 276°
2026-05-07 23:43 29.67916 -93.30759 33952 ft 429 kts 276°
2026-05-07 23:43 29.68891 -93.37523 33950 ft 429 kts 275°
2026-05-07 23:44 29.69858 -93.44268 33950 ft 429 kts 276°
2026-05-07 23:44 29.70824 -93.51018 33953 ft 428 kts 276°
2026-05-07 23:45 29.71785 -93.57763 33952 ft 428 kts 276°
2026-05-07 23:45 29.72743 -93.64509 33956 ft 427 kts 276°
2026-05-07 23:46 29.73699 -93.71267 33965 ft 426 kts 275°
2026-05-07 23:46 29.74645 -93.77972 33964 ft 426 kts 275°
2026-05-07 23:47 29.75592 -93.84727 33968 ft 427 kts 275°
2026-05-07 23:47 29.76532 -93.91442 33970 ft 427 kts 275°
2026-05-07 23:48 29.77474 -93.98207 33965 ft 427 kts 275°
2026-05-07 23:48 29.78404 -94.04912 33964 ft 428 kts 274°
2026-05-07 23:49 29.79342 -94.11692 33966 ft 427 kts 275°
2026-05-07 23:49 29.80271 -94.18436 33965 ft 426 kts 275°
2026-05-07 23:50 29.81197 -94.25180 33965 ft 427 kts 274°
2026-05-07 23:50 29.82113 -94.31895 33963 ft 426 kts 274°
2026-05-07 23:51 29.83032 -94.38658 33963 ft 426 kts 274°
2026-05-07 23:51 29.83939 -94.45358 33964 ft 426 kts 274°
2026-05-07 23:52 29.84853 -94.52099 33962 ft 426 kts 274°
2026-05-07 23:52 29.85758 -94.58806 33963 ft 425 kts 274°
2026-05-07 23:53 29.86661 -94.65535 33959 ft 426 kts 274°
2026-05-07 23:53 29.87563 -94.72310 33960 ft 425 kts 274°
2026-05-07 23:54 29.88458 -94.79041 33960 ft 424 kts 274°
2026-05-07 23:54 29.89345 -94.85723 33956 ft 424 kts 274°
2026-05-07 23:55 29.90227 -94.92437 33960 ft 424 kts 274°
2026-05-07 23:55 29.91113 -94.99153 33963 ft 424 kts 274°
2026-05-07 23:56 29.91986 -95.05853 33965 ft 424 kts 274°
2026-05-07 23:56 29.92861 -95.12573 33970 ft 425 kts 274°
2026-05-07 23:57 29.93737 -95.19338 33975 ft 424 kts 274°
2026-05-07 23:57 29.94602 -95.26037 33972 ft 424 kts 274°
2026-05-07 23:58 29.95440 -95.32560 33975 ft 424 kts 274°
2026-05-07 23:58 29.96458 -95.39255 33974 ft 426 kts 275°
2026-05-07 23:59 29.97533 -95.45936 33972 ft 425 kts 275°
2026-05-07 23:59 29.98614 -95.52671 33967 ft 426 kts 275°
2026-05-08 00:00 29.99681 -95.59364 33968 ft 425 kts 275°
2026-05-08 00:00 30.00754 -95.66102 33973 ft 426 kts 275°
2026-05-08 00:01 30.01823 -95.72863 33961 ft 426 kts 275°
2026-05-08 00:01 30.02887 -95.79588 33958 ft 426 kts 275°
2026-05-08 00:02 30.03939 -95.86282 33955 ft 426 kts 275°
2026-05-08 00:02 30.04997 -95.93024 33960 ft 425 kts 275°
2026-05-08 00:03 30.06053 -95.99764 33962 ft 425 kts 275°
2026-05-08 00:03 30.07090 -96.06432 33968 ft 424 kts 275°
2026-05-08 00:04 30.08131 -96.13126 33970 ft 425 kts 275°
2026-05-08 00:04 30.09173 -96.19855 33972 ft 424 kts 275°
2026-05-08 00:05 30.10203 -96.26531 33973 ft 425 kts 275°
2026-05-08 00:05 30.11247 -96.33321 33976 ft 425 kts 275°
2026-05-08 00:06 30.12270 -96.40001 33976 ft 425 kts 275°
2026-05-08 00:06 30.13293 -96.46707 33985 ft 425 kts 275°
2026-05-08 00:07 30.14315 -96.53433 33981 ft 425 kts 275°
2026-05-08 00:07 30.15334 -96.60164 33981 ft 426 kts 275°
2026-05-08 00:08 30.16347 -96.66881 33989 ft 426 kts 274°
2026-05-08 00:08 30.17363 -96.73636 33986 ft 426 kts 274°
2026-05-08 00:09 30.18377 -96.80394 33990 ft 426 kts 274°
2026-05-08 00:09 30.19386 -96.87161 34003 ft 427 kts 274°
2026-05-08 00:10 30.20389 -96.93897 34013 ft 428 kts 274°
2026-05-08 00:10 30.21390 -97.00663 34018 ft 428 kts 274°
2026-05-08 00:11 30.22387 -97.07413 34018 ft 427 kts 275°
2026-05-08 00:11 30.23384 -97.14174 34015 ft 427 kts 274°
2026-05-08 00:12 30.24376 -97.20940 34005 ft 428 kts 274°
2026-05-08 00:12 30.25366 -97.27710 33999 ft 427 kts 274°
2026-05-08 00:13 30.26348 -97.34440 34007 ft 427 kts 274°
2026-05-08 00:13 30.27332 -97.41223 34008 ft 426 kts 275°
2026-05-08 00:14 30.28303 -97.47950 34011 ft 426 kts 274°
2026-05-08 00:14 30.29272 -97.54677 34008 ft 427 kts 275°
2026-05-08 00:15 30.30243 -97.61468 34016 ft 426 kts 274°
2026-05-08 00:15 30.31207 -97.68212 34017 ft 426 kts 273°
2026-05-08 00:16 30.32169 -97.74983 34024 ft 426 kts 274°
2026-05-08 00:16 30.33125 -97.81740 34022 ft 426 kts 274°
2026-05-08 00:17 30.34080 -97.88495 34026 ft 425 kts 274°
2026-05-08 00:17 30.35027 -97.95235 34031 ft 424 kts 274°
2026-05-08 00:18 30.35970 -98.01962 34030 ft 424 kts 274°
2026-05-08 00:18 30.36906 -98.08674 34028 ft 424 kts 274°
2026-05-08 00:19 30.37835 -98.15369 34034 ft 424 kts 274°
2026-05-08 00:19 30.38772 -98.22134 34023 ft 424 kts 274°
2026-05-08 00:20 30.39696 -98.28837 34027 ft 425 kts 274°
2026-05-08 00:20 30.40628 -98.35624 34016 ft 426 kts 274°
2026-05-08 00:21 30.41553 -98.42371 34010 ft 426 kts 274°
2026-05-08 00:21 30.42475 -98.49112 34012 ft 426 kts 274°
2026-05-08 00:22 30.43400 -98.55926 34005 ft 426 kts 274°
2026-05-08 00:22 30.44315 -98.62691 34005 ft 426 kts 274°
2026-05-08 00:23 30.45232 -98.69493 34005 ft 427 kts 274°
2026-05-08 00:23 30.46142 -98.76275 33999 ft 426 kts 273°
2026-05-08 00:24 30.47052 -98.83093 34006 ft 427 kts 273°
2026-05-08 00:24 30.47953 -98.89866 34010 ft 427 kts 273°
2026-05-08 00:25 30.48861 -98.96722 34013 ft 426 kts 273°
2026-05-08 00:25 30.49760 -99.03536 34017 ft 427 kts 273°
2026-05-08 00:26 30.50657 -99.10359 34017 ft 426 kts 273°
2026-05-08 00:26 30.51543 -99.17124 34019 ft 427 kts 273°
2026-05-08 00:27 30.52430 -99.23947 34016 ft 426 kts 272°
2026-05-08 00:27 30.53309 -99.30726 34023 ft 427 kts 273°
2026-05-08 00:28 30.54192 -99.37579 34022 ft 427 kts 272°
2026-05-08 00:28 30.55064 -99.44333 34023 ft 428 kts 273°
2026-05-08 00:29 30.55938 -99.51160 34024 ft 428 kts 273°
2026-05-08 00:29 30.56809 -99.57993 34033 ft 428 kts 273°
2026-05-08 00:30 30.57671 -99.64791 34030 ft 429 kts 273°
2026-05-08 00:30 30.58541 -99.71671 34030 ft 429 kts 272°
2026-05-08 00:31 30.59399 -99.78495 34026 ft 429 kts 272°
2026-05-08 00:31 30.60257 -99.85323 34031 ft 430 kts 272°
2026-05-08 00:32 30.61111 -99.92210 34040 ft 429 kts 272°
2026-05-08 00:32 30.61952 -99.99025 34041 ft 430 kts 272°
2026-05-08 00:33 30.62798 -100.05878 34042 ft 429 kts 272°
2026-05-08 00:33 30.63638 -100.12714 34042 ft 431 kts 272°
2026-05-08 00:34 30.64478 -100.19613 34043 ft 430 kts 272°
2026-05-08 00:34 30.65306 -100.26458 34040 ft 430 kts 272°
2026-05-08 00:35 30.66136 -100.33330 34038 ft 429 kts 271°
2026-05-08 00:35 30.66960 -100.40175 34041 ft 432 kts 272°
2026-05-08 00:36 30.67785 -100.47092 34048 ft 430 kts 272°
2026-05-08 00:36 30.68608 -100.53974 34049 ft 430 kts 272°
2026-05-08 00:37 30.69420 -100.60833 34049 ft 430 kts 272°
2026-05-08 00:38 30.70635 -100.71130 34046 ft 431 kts 271°
2026-05-08 00:38 30.71438 -100.78002 34045 ft 431 kts 271°
2026-05-08 00:39 30.72243 -100.84879 34048 ft 431 kts 271°
2026-05-08 00:39 30.73046 -100.91770 34040 ft 432 kts 271°
2026-05-08 00:40 30.73852 -100.98740 34044 ft 431 kts 271°
2026-05-08 00:40 30.74641 -101.05602 34044 ft 429 kts 271°
2026-05-08 00:41 30.75436 -101.12535 34037 ft 430 kts 271°
2026-05-08 00:41 30.76229 -101.19492 34028 ft 429 kts 270°
2026-05-08 00:42 30.77014 -101.26417 34024 ft 433 kts 271°
2026-05-08 00:42 30.77798 -101.33365 34038 ft 433 kts 271°
2026-05-08 00:43 30.78583 -101.40333 34041 ft 432 kts 271°
2026-05-08 00:43 30.79358 -101.47266 34041 ft 431 kts 270°
2026-05-08 00:44 30.80130 -101.54216 34037 ft 433 kts 270°
2026-05-08 00:44 30.80895 -101.61125 34036 ft 431 kts 270°
2026-05-08 00:45 30.81662 -101.68090 34033 ft 433 kts 270°
2026-05-08 00:45 30.82427 -101.75068 34029 ft 431 kts 270°
2026-05-08 00:46 30.83182 -101.81985 34029 ft 435 kts 269°
2026-05-08 00:46 30.83950 -101.89061 34027 ft 436 kts 270°
2026-05-08 00:47 30.84703 -101.96077 34025 ft 435 kts 269°
2026-05-08 00:47 30.85447 -102.03023 34023 ft 434 kts 269°
2026-05-08 00:48 30.86212 -102.10139 34025 ft 437 kts 269°
2026-05-08 00:48 30.86955 -102.17135 34025 ft 435 kts 269°
2026-05-08 00:49 30.87698 -102.24171 34026 ft 434 kts 269°
2026-05-08 00:49 30.88439 -102.31194 34030 ft 435 kts 268°
2026-05-08 00:50 30.89167 -102.38161 34032 ft 436 kts 268°
2026-05-08 00:50 30.89893 -102.45187 34034 ft 435 kts 268°
2026-05-08 00:51 30.90620 -102.52183 34035 ft 436 kts 268°
2026-05-08 00:51 30.91338 -102.59187 34032 ft 435 kts 268°
2026-05-08 00:52 30.92056 -102.66211 34039 ft 436 kts 268°
2026-05-08 00:52 30.92770 -102.73244 34041 ft 432 kts 268°
2026-05-08 00:53 30.93476 -102.80214 34039 ft 433 kts 268°
2026-05-08 00:53 30.94172 -102.87125 34043 ft 432 kts 268°
2026-05-08 00:54 30.94985 -102.94124 34049 ft 434 kts 270°
2026-05-08 00:54 30.96306 -103.01098 34048 ft 444 kts 275°
2026-05-08 00:55 30.98119 -103.08039 34043 ft 448 kts 277°
2026-05-08 00:55 31.00016 -103.14944 34036 ft 447 kts 277°
2026-05-08 00:56 31.01916 -103.21867 34041 ft 448 kts 277°
2026-05-08 00:56 31.03796 -103.28729 34037 ft 447 kts 277°
2026-05-08 00:57 31.05692 -103.35669 34046 ft 446 kts 278°
2026-05-08 00:57 31.07577 -103.42570 34048 ft 448 kts 277°
2026-05-08 00:58 31.09452 -103.49472 34045 ft 449 kts 278°
2026-05-08 00:58 31.11355 -103.56488 34045 ft 447 kts 278°
2026-05-08 00:59 31.13240 -103.63443 34043 ft 447 kts 278°
2026-05-08 00:59 31.15117 -103.70393 34051 ft 446 kts 278°
2026-05-08 01:00 31.16970 -103.77263 34042 ft 445 kts 278°
2026-05-08 01:00 31.18824 -103.84161 34037 ft 447 kts 278°
2026-05-08 01:01 31.20668 -103.91039 34042 ft 447 kts 278°
2026-05-08 01:01 31.22518 -103.97957 34052 ft 446 kts 278°
2026-05-08 01:02 31.24358 -104.04845 34062 ft 445 kts 278°
2026-05-08 01:02 31.26193 -104.11732 34067 ft 445 kts 278°
2026-05-08 01:03 31.28024 -104.18629 34074 ft 445 kts 278°
2026-05-08 01:03 31.29853 -104.25532 34073 ft 443 kts 278°
2026-05-08 01:04 31.31665 -104.32381 34085 ft 444 kts 278°
2026-05-08 01:04 31.33477 -104.39252 34095 ft 444 kts 278°
2026-05-08 01:05 31.35289 -104.46137 34095 ft 445 kts 278°
2026-05-08 01:05 31.37098 -104.53030 34103 ft 444 kts 278°
2026-05-08 01:06 31.38913 -104.59964 34114 ft 445 kts 278°
2026-05-08 01:06 31.40727 -104.66908 34105 ft 444 kts 278°
2026-05-08 01:07 31.42532 -104.73833 34101 ft 443 kts 278°
2026-05-08 01:07 31.44325 -104.80724 34091 ft 444 kts 278°
2026-05-08 01:08 31.46113 -104.87618 34099 ft 442 kts 278°
2026-05-08 01:08 31.47706 -104.93772 34126 ft 442 kts 278°
2026-05-08 01:09 31.49439 -105.00496 34141 ft 442 kts 278°
2026-05-08 01:09 31.51207 -105.07360 34132 ft 443 kts 278°
2026-05-08 01:10 31.52988 -105.14297 34120 ft 443 kts 278°
2026-05-08 01:10 31.54755 -105.21199 34113 ft 443 kts 278°
2026-05-08 01:11 31.56523 -105.28112 34106 ft 445 kts 278°
2026-05-08 01:11 31.58279 -105.35022 34098 ft 444 kts 278°
2026-05-08 01:12 31.60053 -105.41978 34100 ft 445 kts 278°
2026-05-08 01:12 31.61811 -105.48914 34108 ft 445 kts 278°
2026-05-08 01:13 31.63567 -105.55845 34100 ft 445 kts 278°
2026-05-08 01:13 31.65327 -105.62820 34106 ft 447 kts 278°
2026-05-08 01:14 31.67090 -105.69827 34122 ft 445 kts 278°
2026-05-08 01:14 31.68830 -105.76756 34129 ft 445 kts 277°
2026-05-08 01:15 31.70571 -105.83708 34130 ft 445 kts 277°
2026-05-08 01:15 31.72322 -105.90720 34138 ft 448 kts 277°
2026-05-08 01:16 31.74056 -105.97690 34123 ft 448 kts 278°
2026-05-08 01:16 31.75803 -106.04720 34118 ft 448 kts 278°
2026-05-08 01:17 31.77541 -106.11737 34090 ft 450 kts 278°
2026-05-08 01:17 31.79287 -106.18809 34071 ft 450 kts 278°
2026-05-08 01:18 31.80738 -106.25178 34069 ft 446 kts 275°
2026-05-08 01:18 31.81833 -106.32387 34050 ft 441 kts 270°
2026-05-08 01:19 31.82443 -106.39525 34049 ft 439 kts 268°
2026-05-08 01:19 31.82984 -106.46677 34055 ft 440 kts 268°
2026-05-08 01:20 31.83519 -106.53830 34045 ft 441 kts 268°
2026-05-08 01:20 31.84054 -106.61043 34053 ft 442 kts 268°
2026-05-08 01:21 31.84587 -106.68254 34060 ft 442 kts 268°
2026-05-08 01:21 31.85108 -106.75416 34054 ft 442 kts 268°
2026-05-08 01:22 31.85630 -106.82622 34051 ft 442 kts 268°
2026-05-08 01:22 31.86152 -106.89847 34058 ft 442 kts 268°
2026-05-08 01:23 31.86667 -106.97082 34062 ft 444 kts 268°
2026-05-08 01:23 31.87177 -107.04355 34066 ft 443 kts 268°
2026-05-08 01:24 31.87677 -107.11550 34073 ft 445 kts 268°
2026-05-08 01:24 31.88181 -107.18811 34073 ft 446 kts 269°
2026-05-08 01:25 31.88684 -107.26101 34070 ft 446 kts 269°
2026-05-08 01:25 31.89181 -107.33355 34078 ft 446 kts 268°
2026-05-08 01:26 31.89674 -107.40620 34072 ft 447 kts 269°
2026-05-08 01:26 31.90162 -107.47868 34069 ft 448 kts 269°
2026-05-08 01:27 31.90646 -107.55148 34072 ft 445 kts 269°
2026-05-08 01:27 31.91117 -107.62300 34074 ft 447 kts 269°
2026-05-08 01:28 31.91594 -107.69581 34069 ft 447 kts 268°
2026-05-08 01:28 31.92347 -107.76907 34068 ft 453 kts 273°
2026-05-08 01:29 31.93674 -107.84197 34069 ft 459 kts 278°
2026-05-08 01:29 31.95384 -107.91416 34081 ft 461 kts 279°
2026-05-08 01:30 31.97120 -107.98651 34090 ft 463 kts 279°
2026-05-08 01:30 31.98867 -108.05957 34101 ft 463 kts 280°
2026-05-08 01:31 32.00598 -108.13218 34109 ft 463 kts 280°
2026-05-08 01:31 32.02329 -108.20512 34115 ft 464 kts 280°
2026-05-08 01:32 32.04074 -108.27872 34116 ft 467 kts 280°
2026-05-08 01:32 32.05813 -108.35228 34111 ft 469 kts 281°
2026-05-08 01:33 32.07553 -108.42620 34115 ft 472 kts 281°
2026-05-08 01:33 32.09304 -108.50075 34107 ft 473 kts 281°
2026-05-08 01:34 32.11064 -108.57578 34111 ft 475 kts 281°
2026-05-08 01:34 32.12809 -108.65046 34123 ft 476 kts 281°
2026-05-08 01:35 32.14584 -108.72675 34110 ft 478 kts 281°
2026-05-08 01:35 32.16348 -108.80254 34096 ft 478 kts 281°
2026-05-08 01:36 32.18095 -108.87819 34101 ft 481 kts 282°
2026-05-08 01:36 32.19851 -108.95422 34102 ft 481 kts 282°
2026-05-08 01:37 32.21600 -109.03009 34123 ft 483 kts 282°
2026-05-08 01:37 32.23362 -109.10686 34128 ft 488 kts 282°
2026-05-08 01:38 32.25131 -109.18422 34102 ft 494 kts 282°
2026-05-08 01:38 32.27054 -109.26215 34104 ft 497 kts 286°
2026-05-08 01:39 32.29560 -109.33883 34089 ft 506 kts 290°
2026-05-08 01:39 32.32277 -109.41644 34070 ft 513 kts 291°
2026-05-08 01:40 32.35005 -109.49416 34079 ft 515 kts 292°
2026-05-08 01:40 32.37744 -109.57237 34090 ft 516 kts 292°
2026-05-08 01:41 32.40448 -109.65024 34105 ft 517 kts 292°
2026-05-08 01:41 32.43188 -109.72915 34126 ft 517 kts 292°
2026-05-08 01:42 32.45850 -109.80624 34142 ft 515 kts 293°
2026-05-08 01:42 32.48434 -109.88104 34133 ft 515 kts 293°
2026-05-08 01:43 32.51160 -109.96021 34120 ft 515 kts 293°
2026-05-08 01:43 32.53870 -110.03899 34090 ft 517 kts 293°
2026-05-08 01:44 32.56571 -110.11796 34096 ft 517 kts 294°
2026-05-08 01:44 32.59264 -110.19674 34105 ft 517 kts 294°
2026-05-08 01:45 32.61947 -110.27560 34117 ft 517 kts 295°
2026-05-08 01:45 32.64638 -110.35458 34089 ft 515 kts 295°
2026-05-08 01:46 32.67307 -110.43329 34065 ft 513 kts 295°
2026-05-08 01:46 32.69958 -110.51175 34060 ft 513 kts 296°
2026-05-08 01:47 32.72587 -110.58958 34061 ft 511 kts 296°
2026-05-08 01:47 32.75222 -110.66777 34060 ft 510 kts 296°
2026-05-08 01:48 32.79186 -110.78577 34050 ft 510 kts 296°
2026-05-08 01:48 32.81787 -110.86343 34043 ft 509 kts 296°
2026-05-08 01:49 32.84411 -110.94188 34032 ft 507 kts 296°
2026-05-08 01:49 32.86996 -111.01948 34052 ft 508 kts 297°
2026-05-08 01:50 32.89584 -111.09742 34020 ft 507 kts 297°
2026-05-08 01:50 32.92171 -111.17548 33999 ft 506 kts 297°
2026-05-08 01:51 32.94741 -111.25315 33982 ft 508 kts 297°
2026-05-08 01:51 32.97321 -111.33136 33944 ft 508 kts 297°
2026-05-08 01:52 32.99900 -111.40971 33949 ft 509 kts 297°
2026-05-08 01:52 33.02480 -111.48830 33925 ft 510 kts 298°
2026-05-08 01:53 33.05060 -111.56714 33910 ft 508 kts 298°
2026-05-08 01:53 33.07616 -111.64535 33903 ft 508 kts 298°
2026-05-08 01:54 33.10195 -111.72451 33897 ft 508 kts 297°
2026-05-08 01:54 33.12753 -111.80322 33888 ft 509 kts 297°
2026-05-08 01:55 33.15307 -111.88206 33889 ft 508 kts 297°
2026-05-08 01:55 33.17842 -111.96040 33883 ft 508 kts 297°
2026-05-08 01:56 33.20389 -112.03932 33879 ft 508 kts 297°
2026-05-08 01:56 33.22914 -112.11781 33895 ft 509 kts 297°
2026-05-08 01:57 33.25442 -112.19664 33926 ft 508 kts 297°
2026-05-08 01:57 33.27957 -112.27518 33945 ft 507 kts 297°
2026-05-08 01:58 33.30462 -112.35376 33927 ft 506 kts 297°
2026-05-08 01:58 33.32951 -112.43187 33898 ft 505 kts 297°
2026-05-08 01:59 33.35437 -112.51014 33875 ft 504 kts 297°
2026-05-08 01:59 33.37917 -112.58847 33868 ft 504 kts 297°
2026-05-08 02:00 33.40380 -112.66642 33866 ft 502 kts 296°
2026-05-08 02:00 33.42854 -112.74492 33865 ft 503 kts 296°
2026-05-08 02:01 33.45329 -112.82307 33861 ft 500 kts 297°
2026-05-08 02:01 33.48032 -112.89949 33864 ft 499 kts 299°
2026-05-08 02:02 33.50770 -112.97555 33879 ft 496 kts 298°
2026-05-08 02:02 33.53495 -113.05167 33887 ft 497 kts 298°
2026-05-08 02:03 33.56212 -113.12784 33894 ft 496 kts 298°
2026-05-08 02:03 33.58907 -113.20363 33898 ft 497 kts 298°
2026-05-08 02:04 33.61604 -113.27967 33900 ft 497 kts 298°
2026-05-08 02:04 33.64298 -113.35581 33906 ft 496 kts 298°
2026-05-08 02:05 33.66986 -113.43197 33913 ft 495 kts 298°
2026-05-08 02:05 33.69655 -113.50776 33930 ft 494 kts 298°
2026-05-08 02:06 33.72331 -113.58389 33928 ft 495 kts 298°
2026-05-08 02:06 33.74978 -113.65946 33914 ft 494 kts 297°
2026-05-08 02:07 33.77653 -113.73599 33905 ft 494 kts 297°
2026-05-08 02:07 33.80305 -113.81205 33891 ft 494 kts 297°
2026-05-08 02:08 33.82901 -113.88814 33892 ft 494 kts 297°
2026-05-08 02:08 33.85488 -113.96461 33887 ft 494 kts 297°
2026-05-08 02:09 33.88075 -114.04112 33882 ft 494 kts 297°
2026-05-08 02:09 33.90367 -114.11897 33870 ft 498 kts 291°
2026-05-08 02:10 33.92018 -114.19998 33857 ft 500 kts 287°
2026-05-08 02:10 33.93404 -114.28196 33843 ft 500 kts 286°
2026-05-08 02:11 33.94775 -114.36386 33839 ft 500 kts 286°
2026-05-08 02:11 33.96143 -114.44542 33839 ft 501 kts 286°
2026-05-08 02:12 33.97524 -114.52784 33839 ft 500 kts 286°
2026-05-08 02:12 33.98891 -114.60975 33841 ft 501 kts 286°
2026-05-08 02:13 34.00255 -114.69182 33845 ft 500 kts 285°
2026-05-08 02:13 34.01619 -114.77427 33852 ft 499 kts 285°
2026-05-08 02:14 34.02905 -114.85223 33860 ft 502 kts 285°
2026-05-08 02:14 34.04259 -114.93493 33871 ft 501 kts 285°
2026-05-08 02:15 34.05601 -115.01723 33882 ft 500 kts 285°
2026-05-08 02:15 34.06938 -115.09911 33872 ft 499 kts 285°
2026-05-08 02:16 34.08280 -115.18156 33882 ft 499 kts 285°
2026-05-08 02:16 34.09598 -115.26314 33884 ft 499 kts 285°
2026-05-08 02:17 34.10927 -115.34580 33895 ft 499 kts 284°
2026-05-08 02:17 34.12243 -115.42804 33913 ft 498 kts 284°
2026-05-08 02:18 34.13544 -115.50970 33913 ft 497 kts 285°
2026-05-08 02:18 34.14194 -115.55062 33655 ft 498 kts 284°
2026-05-08 02:18 34.14845 -115.59211 33391 ft 498 kts 283°
2026-05-08 02:19 34.15339 -115.63329 33136 ft 501 kts 280°
2026-05-08 02:19 34.15641 -115.67524 32788 ft 504 kts 276°
2026-05-08 02:19 34.15741 -115.71744 32320 ft 507 kts 273°
2026-05-08 02:19 34.15631 -115.76059 31699 ft 511 kts 269°
2026-05-08 02:20 34.15309 -115.80353 30994 ft 514 kts 266°
2026-05-08 02:20 34.14896 -115.84641 30306 ft 516 kts 266°
2026-05-08 02:20 34.14482 -115.88790 29580 ft 518 kts 266°
2026-05-08 02:20 34.14057 -115.93048 28912 ft 516 kts 266°
2026-05-08 02:21 34.13633 -115.97350 28497 ft 513 kts 266°
2026-05-08 02:21 34.13216 -116.01633 28074 ft 510 kts 266°
2026-05-08 02:21 34.12801 -116.05861 27647 ft 503 kts 266°
2026-05-08 02:21 34.12394 -116.10011 27200 ft 495 kts 266°
2026-05-08 02:22 34.11992 -116.14087 26800 ft 487 kts 266°
2026-05-08 02:22 34.11599 -116.18060 26391 ft 480 kts 266°
2026-05-08 02:22 34.11204 -116.22036 25965 ft 473 kts 266°
2026-05-08 02:22 34.10815 -116.25946 25531 ft 467 kts 266°
2026-05-08 02:23 34.10432 -116.29787 25126 ft 461 kts 266°
2026-05-08 02:23 34.10035 -116.33619 24684 ft 456 kts 266°
2026-05-08 02:23 34.09631 -116.37391 24260 ft 451 kts 266°
2026-05-08 02:23 34.09231 -116.41094 24080 ft 440 kts 266°
2026-05-08 02:24 34.08844 -116.44657 24076 ft 425 kts 266°
2026-05-08 02:24 34.08464 -116.48174 24070 ft 410 kts 266°
2026-05-08 02:24 34.08104 -116.51498 24064 ft 397 kts 266°
2026-05-08 02:24 34.07754 -116.54743 24065 ft 383 kts 266°
2026-05-08 02:25 34.07413 -116.57886 24074 ft 370 kts 266°
2026-05-08 02:25 34.07104 -116.60871 23930 ft 362 kts 267°
2026-05-08 02:25 34.06829 -116.63866 23339 ft 368 kts 268°
2026-05-08 02:25 34.06556 -116.66928 22787 ft 371 kts 267°
2026-05-08 02:26 34.06278 -116.70009 22285 ft 374 kts 267°
2026-05-08 02:26 34.05999 -116.73045 21800 ft 376 kts 266°
2026-05-08 02:26 34.05707 -116.76210 21270 ft 379 kts 266°
2026-05-08 02:26 34.05415 -116.79340 20780 ft 380 kts 266°
2026-05-08 02:27 34.05112 -116.82554 20252 ft 382 kts 266°
2026-05-08 02:27 34.04814 -116.85719 19708 ft 385 kts 266°
2026-05-08 02:27 34.04499 -116.88968 19145 ft 388 kts 264°
2026-05-08 02:27 34.04104 -116.92149 18643 ft 388 kts 263°
2026-05-08 02:28 34.03686 -116.95342 18161 ft 388 kts 263°
2026-05-08 02:28 34.03260 -116.98589 17690 ft 388 kts 263°
2026-05-08 02:28 34.02842 -117.01790 17233 ft 387 kts 263°
2026-05-08 02:28 34.02437 -117.04973 16827 ft 384 kts 263°
2026-05-08 02:29 34.02062 -117.08131 16488 ft 380 kts 264°
2026-05-08 02:29 34.01693 -117.11285 16151 ft 375 kts 264°
2026-05-08 02:29 34.01331 -117.14366 15828 ft 371 kts 264°
2026-05-08 02:29 34.00970 -117.17425 15518 ft 367 kts 263°
2026-05-08 02:30 34.00610 -117.20450 15209 ft 363 kts 263°
2026-05-08 02:30 34.00253 -117.23438 14897 ft 359 kts 263°
2026-05-08 02:30 33.99899 -117.26387 14508 ft 358 kts 263°
2026-05-08 02:30 33.99540 -117.29374 14112 ft 357 kts 263°
2026-05-08 02:31 33.99201 -117.32216 13814 ft 353 kts 263°
2026-05-08 02:31 33.98859 -117.35131 13551 ft 349 kts 263°
2026-05-08 02:31 33.98526 -117.37971 13298 ft 344 kts 263°
2026-05-08 02:31 33.98187 -117.40844 13030 ft 340 kts 263°
2026-05-08 02:32 33.97857 -117.43641 12652 ft 341 kts 263°
2026-05-08 02:32 33.97522 -117.46480 12277 ft 340 kts 263°
2026-05-08 02:32 33.97389 -117.49279 11898 ft 338 kts 276°
2026-05-08 02:32 33.97752 -117.52084 11517 ft 336 kts 283°
2026-05-08 02:33 33.98254 -117.54836 11139 ft 335 kts 284°
2026-05-08 02:33 33.98768 -117.57574 10758 ft 335 kts 284°
2026-05-08 02:33 33.99272 -117.60312 10378 ft 334 kts 284°
2026-05-08 02:33 33.99434 -117.61208 10241 ft 333 kts 284°
2026-05-08 02:34 34.00549 -117.67791 9197 ft 298 kts 276°
2026-05-08 02:34 34.00534 -117.70257 8810 ft 288 kts 266°
2026-05-08 02:34 34.00309 -117.72637 8418 ft 279 kts 264°
2026-05-08 02:35 34.00070 -117.74908 8032 ft 270 kts 264°
2026-05-08 02:35 33.99842 -117.77099 7649 ft 263 kts 264°
2026-05-08 02:35 33.99623 -117.79258 7265 ft 256 kts 265°
2026-05-08 02:35 33.99413 -117.81356 6878 ft 250 kts 265°
2026-05-08 02:36 33.99212 -117.83394 6525 ft 242 kts 265°
2026-05-08 02:36 33.99015 -117.85421 6270 ft 242 kts 265°
2026-05-08 02:36 33.98819 -117.87451 6016 ft 242 kts 265°
2026-05-08 02:36 33.98626 -117.89442 5732 ft 242 kts 265°
2026-05-08 02:37 33.98429 -117.91462 5445 ft 241 kts 265°
2026-05-08 02:37 33.98231 -117.93479 5155 ft 241 kts 265°
2026-05-08 02:37 33.98035 -117.95464 4987 ft 236 kts 265°
2026-05-08 02:37 33.97839 -117.97443 4961 ft 240 kts 265°
2026-05-08 02:38 33.97644 -117.99416 4797 ft 240 kts 265°
2026-05-08 02:38 33.97444 -118.01430 4626 ft 240 kts 265°
2026-05-08 02:38 33.97247 -118.03419 4454 ft 237 kts 265°
2026-05-08 02:38 33.97053 -118.05367 4282 ft 232 kts 265°
2026-05-08 02:39 33.96862 -118.07275 4110 ft 229 kts 265°
2026-05-08 02:39 33.96674 -118.09173 3943 ft 228 kts 265°
2026-05-08 02:39 33.96497 -118.11060 3770 ft 224 kts 266°
2026-05-08 02:39 33.96345 -118.12888 3689 ft 215 kts 266°
2026-05-08 02:40 33.96186 -118.14642 3689 ft 205 kts 265°
2026-05-08 02:40 33.96019 -118.16340 3585 ft 205 kts 265°
2026-05-08 02:40 33.95843 -118.18049 3335 ft 203 kts 265°
2026-05-08 02:40 33.95665 -118.19740 3069 ft 203 kts 264°
2026-05-08 02:41 33.95489 -118.21410 2774 ft 196 kts 264°
2026-05-08 02:41 33.95322 -118.22981 2553 ft 182 kts 264°
2026-05-08 02:41 33.95168 -118.24445 2322 ft 172 kts 263°
2026-05-08 02:41 33.95020 -118.25856 2097 ft 165 kts 263°
2026-05-08 02:42 33.94879 -118.27212 1885 ft 159 kts 262°
2026-05-08 02:42 33.94743 -118.28515 1670 ft 153 kts 262°
2026-05-08 02:42 33.94591 -118.29791 1402 ft 151 kts 260°
2026-05-08 02:42 33.94437 -118.31033 1194 ft 146 kts 261°
2026-05-08 02:43 33.94308 -118.32226 976 ft 141 kts 261°
2026-05-08 02:43 33.94193 -118.33357 801 ft 141 kts 263°
2026-05-08 02:43 33.94082 -118.34543 665 ft 140 kts 262°
2026-05-08 02:43 33.93961 -118.35701 534 ft 140 kts 262°
2026-05-08 02:44 33.93858 -118.36853 348 ft 138 kts 263°
2026-05-08 02:44 33.93757 -118.38003 176 ft 136 kts 262°
2026-05-08 02:44 33.93655 -118.39127 118 ft 128 kts 263°
2026-05-08 02:44 33.93542 -118.40006 127 ft 84 kts 262°
2026-05-08 02:45 33.93543 -118.40473 133 ft 38 kts 285°
2026-05-08 02:45 33.93594 -118.40719 136 ft 24 kts 271°
2026-05-08 02:45 33.93619 -118.40859 136 ft 14 kts 309°
2026-05-08 02:45 33.93708 -118.40904 136 ft 14 kts 346°
2026-05-08 02:46 33.93783 -118.40881 136 ft 6 kts 56°
2026-05-08 02:46 33.93794 -118.40814 136 ft 9 kts 81°
2026-05-08 02:46 33.93823 -118.40755 135 ft 7 kts 21°
2026-05-08 02:46 33.93863 -118.40726 135 ft 7 kts 49°
2026-05-08 02:47 33.93889 -118.40666 135 ft 7 kts 62°
2026-05-08 02:47 33.93924 -118.40656 135 ft 4 kts 348°
2026-05-08 02:47 33.93947 -118.40659 135 ft 5 kts 356°
2026-05-08 02:47 33.93958 -118.40659 135 ft 0 kts 354°